[[{"header":{"parameterUnit":"m.s-1","parameterCategory":1,"la1":30.2992,"la2":30.254,"lo1":-89.0895,"lo2":-89.0443,"dy":0.0025,"dx":0.0025,"nx":19,"ny":19,"refTime":"2026-03-23T09:00:00:Z","depth":0,"parameterNumber":2,"parameterNumberName":"U-component_of_WINDS"},"data":[0,0,0,1.1189,1.1189,1.1166,1.1166,1.1145,1.1145,0,0,0,0,0,0,0,0,0,0,0,1.1202,1.1202,1.1189,1.1189,1.1166,1.1166,1.1145,1.1145,0,0,0,0,0,0,0,0,0,0,0,1.1202,1.1202,1.1202,1.1189,1.1166,1.1166,1.1145,1.1159,0,0,0,0,0,0,0,0,0,0,1.118,1.1197,1.1202,1.1202,1.1189,1.1166,1.1166,1.116,1.1158,1.1159,0,1.1163,0,1.1154,1.1144,1.1144,0,0,0,1.1184,1.1198,1.1187,1.1202,1.1189,1.1166,1.1175,1.1159,1.1157,1.1158,1.1162,1.1161,1.1154,1.1144,1.1144,1.1172,1.1172,0,0,1.1185,1.12,1.1188,1.1187,1.1192,1.1176,1.1174,1.1158,1.1163,1.1162,1.116,1.1153,1.1144,1.1144,1.1171,1.1172,0,0,0,1.1192,1.1201,1.119,1.1188,1.1183,1.1175,1.1174,1.1164,1.1159,1.116,1.1153,1.1144,1.1144,1.1171,1.1172,1.1205,0,0,0,1.1193,1.1205,1.1191,1.12,1.1184,1.1173,1.118,1.116,1.1158,1.1153,1.1144,1.1144,1.1171,1.1171,1.1203,1.1218,0,0,0,1.1201,1.1206,1.1205,1.1201,1.1192,1.1173,1.1167,1.1159,1.1154,1.1144,1.1144,1.117,1.1171,1.1202,1.1215,1.1231,0,0,0,1.1214,1.1232,1.1206,1.1224,1.1192,1.1195,1.1167,1.1168,1.1164,1.1144,1.1171,1.1172,1.1201,1.1213,1.123,1.1248,1.1257,0,0,1.1245,1.1236,1.1246,1.1222,1.1233,1.1197,1.1213,1.1193,1.1178,1.1175,1.1175,1.1204,1.1215,1.1231,1.1301,1.1308,0,0,0,1.1261,1.1268,1.1268,1.1266,1.1254,1.1246,1.1223,1.1217,1.1214,1.118,1.1213,1.1219,1.1228,1.1236,1.1242,1.125,1.1176,1.1176,1.1176,1.1323,1.1306,1.1322,1.1303,1.1302,1.1282,1.1279,1.1267,1.1246,1.1255,1.1254,1.1299,1.1309,1.1313,1.1321,1.1262,1.1262,1.1262,1.1262,1.1368,1.1376,1.1354,1.1361,1.1344,1.1349,1.1331,1.1318,1.132,1.1297,1.1304,1.128,1.1322,1.1328,1.1264,1.1264,1.1264,1.1264,1.1263,1.1407,1.1409,1.1403,1.1403,1.1404,1.1384,1.139,1.1372,1.1355,1.1362,1.136,1.136,1.1358,1.1363,1.1363,1.1363,1.1363,1.1363,1.1364,1.145,1.1443,1.1451,1.1444,1.1443,1.144,1.1423,1.1421,1.1415,1.1402,1.1402,1.1382,1.1329,1.1317,1.1366,1.1365,1.1365,1.1365,1.1365,1.1501,1.1489,1.15,1.15,1.1493,1.1497,1.1477,1.1476,1.1472,1.1476,1.1457,1.142,1.1409,1.1404,1.1393,1.1459,1.1459,1.1459,1.1459,1.1535,1.1529,1.154,1.1541,1.154,1.1525,1.154,1.1529,1.1515,1.1512,1.15,1.1485,1.1481,1.1472,1.1465,1.1455,1.1536,1.1536,1.1536,1.1566,1.1561,1.1577,1.1565,1.156,1.1556,1.1571,1.1573,1.1554,1.1539,1.151,1.1507,1.1482,1.1474,1.1456,1.1446,1.1427,0,0]},{"header":{"parameterUnit":"m.s-1","parameterCategory":1,"la1":30.2992,"la2":30.254,"lo1":-89.0895,"lo2":-89.0443,"dy":0.0025,"dx":0.0025,"nx":19,"ny":19,"refTime":"2026-03-23T09:00:00:Z","depth":0,"parameterNumber":3,"parameterNumberName":"V-component_of_WINDS"},"data":[0,0,0,-2.0234,-2.0237,-2.0419,-2.042,-2.0636,-2.0638,0,0,0,0,0,0,0,0,0,0,0,-2.0169,-2.017,-2.0233,-2.0237,-2.0419,-2.042,-2.0636,-2.0638,0,0,0,0,0,0,0,0,0,0,0,-2.0169,-2.017,-2.0171,-2.0238,-2.0419,-2.042,-2.0635,-2.0504,0,0,0,0,0,0,0,0,0,0,-2.0331,-2.0261,-2.017,-2.0171,-2.0239,-2.0418,-2.042,-2.0498,-2.0513,-2.0547,0,-2.0574,0,-2.0609,-2.0651,-2.0652,0,0,0,-2.0246,-2.0249,-2.0307,-2.0171,-2.0241,-2.0418,-2.0339,-2.0506,-2.0522,-2.0566,-2.0577,-2.0586,-2.0613,-2.0653,-2.0654,-2.0823,-2.0824,0,0,-2.0236,-2.0196,-2.0296,-2.0317,-2.0287,-2.0333,-2.0345,-2.0516,-2.0526,-2.0578,-2.0591,-2.0616,-2.0654,-2.0656,-2.0823,-2.0824,0,0,0,-2.0201,-2.0189,-2.0244,-2.0308,-2.0341,-2.0338,-2.0352,-2.0519,-2.054,-2.0593,-2.0619,-2.0655,-2.0658,-2.0823,-2.0823,-2.0805,0,0,0,-2.0196,-2.0169,-2.0239,-2.0216,-2.0338,-2.0432,-2.035,-2.0528,-2.0549,-2.0618,-2.0655,-2.066,-2.0822,-2.0823,-2.0805,-2.0803,0,0,0,-2.0161,-2.0165,-2.0187,-2.0214,-2.029,-2.043,-2.0462,-2.0533,-2.0564,-2.0652,-2.066,-2.0822,-2.0823,-2.0804,-2.0803,-2.0837,0,0,0,-2.0113,-2.0168,-2.0186,-2.0259,-2.0289,-2.0417,-2.0461,-2.0559,-2.0632,-2.0656,-2.0822,-2.0823,-2.0804,-2.0802,-2.0836,-2.0858,-2.0864,0,0,-2.0161,-2.0173,-2.0219,-2.024,-2.0355,-2.0393,-2.0506,-2.0611,-2.0656,-2.0765,-2.077,-2.0805,-2.0803,-2.0837,-2.0908,-2.0911,0,0,0,-2.0221,-2.0253,-2.0293,-2.036,-2.0442,-2.0512,-2.0604,-2.0643,-2.0738,-2.0704,-2.0828,-2.0827,-2.0849,-2.0862,-2.0865,-2.0887,-2.0827,-2.0827,-2.0827,-2.0233,-2.0287,-2.0367,-2.0444,-2.0509,-2.0604,-2.0663,-2.0732,-2.0768,-2.0796,-2.0829,-2.0865,-2.0878,-2.0881,-2.0903,-2.0845,-2.0845,-2.0845,-2.0845,-2.0309,-2.0364,-2.0411,-2.0505,-2.0563,-2.0643,-2.0737,-2.076,-2.0844,-2.0845,-2.0867,-2.0862,-2.0884,-2.0906,-2.0844,-2.0844,-2.0844,-2.0844,-2.0844,-2.0322,-2.0358,-2.0405,-2.051,-2.0585,-2.0662,-2.074,-2.0791,-2.0838,-2.086,-2.0901,-2.0901,-2.0908,-2.0876,-2.0876,-2.0876,-2.0876,-2.0876,-2.0876,-2.0318,-2.0371,-2.0431,-2.0523,-2.0574,-2.0648,-2.0745,-2.0797,-2.0868,-2.0898,-2.0899,-2.0932,-2.0875,-2.086,-2.0879,-2.0878,-2.0878,-2.0878,-2.0878,-2.0375,-2.037,-2.0462,-2.0513,-2.0627,-2.0699,-2.0762,-2.0864,-2.0915,-2.0953,-2.0982,-2.0932,-2.0947,-2.0945,-2.0933,-2.0969,-2.0969,-2.0969,-2.0969,-2.0386,-2.0399,-2.0505,-2.0584,-2.0667,-2.0734,-2.0839,-2.0915,-2.0994,-2.103,-2.1032,-2.102,-2.1015,-2.1034,-2.103,-2.1019,-2.1077,-2.1077,-2.1077,-2.0425,-2.0448,-2.0526,-2.0602,-2.0695,-2.0774,-2.0874,-2.0964,-2.1053,-2.1082,-2.1058,-2.1054,-2.1035,-2.1026,-2.1053,-2.1046,-2.1027,0,0]}]]